Location: Newark
(27.9675°N, 86.8869°E)
Time: 01:40:30
(UTC+00:00)

A-11 Canister half - Pass Details

Date: 31 October 2019
Orbit: 1527 x 1682 km, 47.3° (Epoch: 14 November)

Event Time Altitude Azimuth Distance (km) Brightness Sun altitude
Rises 13:29:27 0° 290° (WNW) 4,763 12.6 -27.0°
Reaches altitude 10° 13:33:31 10° 305° (NW) 3,754 11.7 -27.9°
Maximum altitude 13:40:38 23° 354° (N) 2,827 10.4 -29.5°
Enters shadow 13:43:59 19° 22° (NNE) 3,043 10.3 -30.2°
